Location: Saluda
(35.2377°N, 82.3468°W)
Time: 05:35:39
(UTC+00:00)

Vanguard 2 Rocket - Pass Details

Date: 12 October 2022
Orbit: 555 x 3321 km, 32.9° (Epoch: 04 December)

Event Time Altitude Azimuth Distance (km) Brightness Sun altitude
Rises 05:51:08 0° 280° (W) 6,785 11.3 -61.0°
Enters shadow 05:53:59 - 279° (W) 6,035 11.0 -60.8°
Reaches altitude 10° 05:56:15 10° 278° (W) 5,423 - -60.7°
Maximum altitude 06:10:40 62° 203° (SSW) 1,948 - -59.5°
Drops below altitude 10° 06:18:41 10° 125° (SE) 3,155 - -58.7°
Sets 06:20:55 0° 121° (ESE) 3,856 - -58.4°
